Satellite-Ground Cal/Val Region Overpasses Predictions

Prediction of Satellite NPP Overpassing Cal/Val Region: PacNW

Region Location: (Latitude: 10.00, Longitude: 139.50) to (Latitude: 22.70, Longitude: 165.60).

Table of predicted overpasses for the next 14.0 days since TLE Epoch: 2/18/2023
Interval Starting Time Starting Location Ending Time Ending Location
1 02/18/2023 15:12:49 ( 22.70, 157.20) 02/18/2023 15:16:25 ( 10.02, 154.17)
2 02/19/2023 02:21:55 ( 10.05, 164.69) 02/19/2023 02:25:30 ( 22.67, 161.68)
3 02/19/2023 14:53:47 ( 22.66, 161.95) 02/19/2023 14:57:22 ( 10.04, 158.94)
4 02/20/2023 03:44:22 ( 10.04, 144.08) 02/20/2023 03:47:57 ( 22.66, 141.07)
5 02/20/2023 14:36:03 ( 18.11, 165.59) 02/20/2023 14:38:21 ( 10.00, 163.69)
6 02/20/2023 16:16:15 ( 22.67, 141.34) 02/20/2023 16:18:24 ( 15.11, 139.50)
7 02/21/2023 03:25:20 ( 10.02, 148.85) 02/21/2023 03:28:55 ( 22.64, 145.84)
8 02/21/2023 15:57:12 ( 22.69, 146.11) 02/21/2023 16:00:48 ( 10.01, 143.08)
9 02/22/2023 03:06:17 ( 10.00, 153.62) 02/22/2023 03:09:53 ( 22.68, 150.59)
10 02/22/2023 15:38:11 ( 22.65, 150.86) 02/22/2023 15:41:46 ( 10.03, 147.85)
11 02/23/2023 02:47:16 ( 10.05, 158.37) 02/23/2023 02:50:51 ( 22.67, 155.36)
12 02/23/2023 15:19:09 ( 22.66, 155.62) 02/23/2023 15:22:44 ( 10.05, 152.62)
13 02/24/2023 02:28:13 ( 10.03, 163.13) 02/24/2023 02:31:48 ( 22.65, 160.12)
14 02/24/2023 15:00:06 ( 22.68, 160.39) 02/24/2023 15:03:42 ( 10.00, 157.37)
15 02/25/2023 02:11:58 ( 19.83, 165.59) 02/25/2023 02:12:46 ( 22.64, 164.89)
16 02/25/2023 03:50:41 ( 10.03, 142.52) 02/25/2023 03:54:16 ( 22.65, 139.51)
17 02/25/2023 14:41:04 ( 22.69, 165.16) 02/25/2023 14:44:40 ( 10.01, 162.13)
18 02/25/2023 16:22:34 ( 22.68, 139.78) 02/25/2023 16:22:53 ( 21.57, 139.50)
19 02/26/2023 03:31:38 ( 10.02, 147.29) 02/26/2023 03:35:14 ( 22.70, 144.26)
20 02/26/2023 16:03:31 ( 22.69, 144.55) 02/26/2023 16:07:07 ( 10.01, 141.52)
21 02/27/2023 03:12:36 ( 10.01, 152.05) 02/27/2023 03:16:12 ( 22.69, 149.03)
22 02/27/2023 15:44:30 ( 22.64, 149.30) 02/27/2023 15:48:05 ( 10.02, 146.29)
23 02/28/2023 02:53:33 ( 10.00, 156.82) 02/28/2023 02:57:09 ( 22.68, 153.79)
24 02/28/2023 15:25:27 ( 22.65, 154.06) 02/28/2023 15:29:02 ( 10.03, 151.05)
25 03/01/2023 02:34:32 ( 10.05, 161.57) 03/01/2023 02:38:07 ( 22.68, 158.56)
26 03/01/2023 15:06:25 ( 22.65, 158.82) 03/01/2023 15:10:00 ( 10.04, 155.82)
27 03/02/2023 02:16:25 ( 13.28, 165.59) 03/02/2023 02:19:05 ( 22.67, 163.32)
28 03/02/2023 03:56:58 ( 10.00, 140.97) 03/02/2023 03:58:45 ( 16.29, 139.51)
29 03/02/2023 14:47:22 ( 22.66, 163.59) 03/02/2023 14:50:57 ( 10.04, 160.58)
30 03/03/2023 03:37:57 ( 10.06, 145.72) 03/03/2023 03:41:32 ( 22.68, 142.71)
31 03/03/2023 14:31:36 ( 11.16, 165.60) 03/03/2023 14:31:55 ( 10.04, 165.34)
